owner,sensor,date,latitude,longitude,vertical_datum,wind_speed,wind_to_direction,wind_speed_of_gust,qcFlag 
WAVCIS,ioos:station:WAVCIS:CSI06:1,2019-10-01T00:00:00Z,28.8667,-90.4833,10.0,8.2,90.0,8.8,'11111222,11111222,11111222' 
WAVCIS,ioos:station:WAVCIS:CSI06:1,2019-10-01T01:00:00Z,28.8667,-90.4833,10.0,9.3,90.0,10.3,'11111222,11111222,11111222' 
WAVCIS,ioos:station:WAVCIS:CSI06:1,2019-10-01T02:00:00Z,28.8667,-90.4833,10.0,9.8,90.0,10.8,'11111222,11111222,11111222' 
WAVCIS,ioos:station:WAVCIS:CSI06:1,2019-10-01T03:00:00Z,28.8667,-90.4833,10.0,9.8,90.0,10.8,'11111222,11111222,11111222' 
WAVCIS,ioos:station:WAVCIS:CSI06:1,2019-10-01T04:00:00Z,28.8667,-90.4833,10.0,9.3,100.0,9.8,'11111222,11111222,11111222' 
WAVCIS,ioos:station:WAVCIS:CSI06:1,2019-10-01T05:00:00Z,28.8667,-90.4833,10.0,8.8,100.0,9.8,'11111222,11111222,11111222' 
WAVCIS,ioos:station:WAVCIS:CSI06:1,2019-10-01T06:00:00Z,28.8667,-90.4833,10.0,7.7,100.0,8.8,'11111222,11111222,11111222' 
WAVCIS,ioos:station:WAVCIS:CSI06:1,2019-10-01T07:00:00Z,28.8667,-90.4833,10.0,6.2,110.0,7.2,'11111222,11111222,11111222' 
WAVCIS,ioos:station:WAVCIS:CSI06:1,2019-10-01T08:00:00Z,28.8667,-90.4833,10.0,5.7,110.0,6.2,'11111222,11111222,11111222' 
WAVCIS,ioos:station:WAVCIS:CSI06:1,2019-10-01T09:00:00Z,28.8667,-90.4833,10.0,6.2,110.0,7.2,'11111222,11111222,11111222' 
WAVCIS,ioos:station:WAVCIS:CSI06:1,2019-10-01T10:00:00Z,28.8667,-90.4833,10.0,6.2,110.0,6.7,'11111222,11111222,11111222' 
WAVCIS,ioos:station:WAVCIS:CSI06:1,2019-10-01T11:00:00Z,28.8667,-90.4833,10.0,5.7,100.0,5.7,'11111222,11111222,11111222' 
WAVCIS,ioos:station:WAVCIS:CSI06:1,2019-10-01T12:00:00Z,28.8667,-90.4833,10.0,4.1,90.0,5.1,'11111222,11111222,11111222' 
WAVCIS,ioos:station:WAVCIS:CSI06:1,2019-10-01T13:00:00Z,28.8667,-90.4833,10.0,4.1,80.0,5.1,'11111222,11111222,11111222' 
WAVCIS,ioos:station:WAVCIS:CSI06:1,2019-10-01T15:00:00Z,28.8667,-90.4833,10.0,6.7,60.0,7.2,'11111222,11111222,11111222' 
WAVCIS,ioos:station:WAVCIS:CSI06:1,2019-10-01T16:00:00Z,28.8667,-90.4833,10.0,7.2,60.0,8.2,'11111222,11111222,11111222' 
WAVCIS,ioos:station:WAVCIS:CSI06:1,2019-10-01T17:00:00Z,28.8667,-90.4833,10.0,7.7,70.0,8.8,'11111222,11111222,11111222' 
WAVCIS,ioos:station:WAVCIS:CSI06:1,2019-10-01T18:00:00Z,28.8667,-90.4833,10.0,7.7,70.0,8.8,'11111222,11111222,11111222' 
WAVCIS,ioos:station:WAVCIS:CSI06:1,2019-10-01T19:00:00Z,28.8667,-90.4833,10.0,7.7,70.0,8.8,'11111222,11111222,11111222' 
WAVCIS,ioos:station:WAVCIS:CSI06:1,2019-10-01T20:00:00Z,28.8667,-90.4833,10.0,7.7,80.0,8.8,'11111222,11111222,11111222' 
WAVCIS,ioos:station:WAVCIS:CSI06:1,2019-10-01T21:00:00Z,28.8667,-90.4833,10.0,7.7,70.0,8.2,'11111222,11111222,11111222' 
WAVCIS,ioos:station:WAVCIS:CSI06:1,2019-10-01T22:00:00Z,28.8667,-90.4833,10.0,7.7,70.0,8.8,'11111222,11111222,11111222' 
WAVCIS,ioos:station:WAVCIS:CSI06:1,2019-10-01T23:00:00Z,28.8667,-90.4833,10.0,7.2,70.0,8.2,'11111222,11111222,11111222' 
WAVCIS,ioos:station:WAVCIS:CSI06:1,2019-10-02T00:00:00Z,28.8667,-90.4833,10.0,8.2,80.0,8.8,'11111222,11111222,11111222' 
WAVCIS,ioos:station:WAVCIS:CSI06:1,2019-10-02T01:00:00Z,28.8667,-90.4833,10.0,8.2,80.0,8.8,'11111222,11111222,11111222' 
WAVCIS,ioos:station:WAVCIS:CSI06:1,2019-10-02T02:00:00Z,28.8667,-90.4833,10.0,7.7,70.0,8.2,'11111222,11111222,11111222' 
WAVCIS,ioos:station:WAVCIS:CSI06:1,2019-10-02T03:00:00Z,28.8667,-90.4833,10.0,6.7,80.0,7.2,'11111222,11111222,11111222' 
WAVCIS,ioos:station:WAVCIS:CSI06:1,2019-10-02T04:00:00Z,28.8667,-90.4833,10.0,6.7,80.0,7.2,'11111222,11111222,11111222' 
WAVCIS,ioos:station:WAVCIS:CSI06:1,2019-10-02T05:00:00Z,28.8667,-90.4833,10.0,7.2,80.0,7.7,'11111222,11111222,11111222' 
WAVCIS,ioos:station:WAVCIS:CSI06:1,2019-10-02T06:00:00Z,28.8667,-90.4833,10.0,7.7,100.0,9.3,'11111222,11111222,11111222' 
WAVCIS,ioos:station:WAVCIS:CSI06:1,2019-10-02T07:00:00Z,28.8667,-90.4833,10.0,8.8,110.0,9.8,'11111222,11111222,11111222' 
WAVCIS,ioos:station:WAVCIS:CSI06:1,2019-10-02T08:00:00Z,28.8667,-90.4833,10.0,7.7,110.0,8.2,'11111222,11111222,11111222' 
WAVCIS,ioos:station:WAVCIS:CSI06:1,2019-10-02T09:00:00Z,28.8667,-90.4833,10.0,6.7,110.0,7.7,'11111222,11111222,11111222' 
WAVCIS,ioos:station:WAVCIS:CSI06:1,2019-10-02T10:00:00Z,28.8667,-90.4833,10.0,5.7,110.0,6.7,'11111222,11111222,11111222' 
WAVCIS,ioos:station:WAVCIS:CSI06:1,2019-10-02T11:00:00Z,28.8667,-90.4833,10.0,4.6,110.0,5.1,'11111222,11111222,11111222' 
WAVCIS,ioos:station:WAVCIS:CSI06:1,2019-10-02T12:00:00Z,28.8667,-90.4833,10.0,4.1,90.0,5.1,'11111222,11111222,11111222' 
WAVCIS,ioos:station:WAVCIS:CSI06:1,2019-10-02T13:00:00Z,28.8667,-90.4833,10.0,5.1,80.0,6.2,'11111222,11111222,11111222' 
WAVCIS,ioos:station:WAVCIS:CSI06:1,2019-10-02T14:00:00Z,28.8667,-90.4833,10.0,6.2,60.0,7.2,'11111222,11111222,11111222' 
WAVCIS,ioos:station:WAVCIS:CSI06:1,2019-10-02T15:00:00Z,28.8667,-90.4833,10.0,6.7,70.0,7.7,'11111222,11111222,11111222' 
WAVCIS,ioos:station:WAVCIS:CSI06:1,2019-10-02T16:00:00Z,28.8667,-90.4833,10.0,7.2,70.0,8.2,'11111222,11111222,11111222' 
WAVCIS,ioos:station:WAVCIS:CSI06:1,2019-10-02T17:00:00Z,28.8667,-90.4833,10.0,6.7,60.0,8.2,'11111222,11111222,11111222' 
WAVCIS,ioos:station:WAVCIS:CSI06:1,2019-10-02T18:00:00Z,28.8667,-90.4833,10.0,8.2,60.0,8.8,'11111222,11111222,11111222' 
WAVCIS,ioos:station:WAVCIS:CSI06:1,2019-10-02T19:00:00Z,28.8667,-90.4833,10.0,10.3,70.0,11.8,'11111222,11111222,11111222' 
WAVCIS,ioos:station:WAVCIS:CSI06:1,2019-10-02T20:00:00Z,28.8667,-90.4833,10.0,7.7,70.0,8.2,'11111222,11111222,11111222' 
WAVCIS,ioos:station:WAVCIS:CSI06:1,2019-10-02T21:00:00Z,28.8667,-90.4833,10.0,6.7,80.0,7.2,'11111222,11111222,11111222' 
WAVCIS,ioos:station:WAVCIS:CSI06:1,2019-10-02T22:00:00Z,28.8667,-90.4833,10.0,6.7,90.0,7.7,'11111222,11111222,11111222' 
WAVCIS,ioos:station:WAVCIS:CSI06:1,2019-10-02T23:00:00Z,28.8667,-90.4833,10.0,8.2,90.0,9.3,'11111222,11111222,11111222' 
WAVCIS,ioos:station:WAVCIS:CSI06:1,2019-10-03T00:00:00Z,28.8667,-90.4833,10.0,7.2,100.0,8.8,'11111222,11111222,11111222' 
WAVCIS,ioos:station:WAVCIS:CSI06:1,2019-10-03T01:00:00Z,28.8667,-90.4833,10.0,8.2,90.0,8.8,'11111222,11111222,11111222' 
WAVCIS,ioos:station:WAVCIS:CSI06:1,2019-10-03T02:00:00Z,28.8667,-90.4833,10.0,7.7,90.0,8.8,'11111222,11111222,11111222' 
WAVCIS,ioos:station:WAVCIS:CSI06:1,2019-10-03T03:00:00Z,28.8667,-90.4833,10.0,7.2,100.0,8.2,'11111222,11111222,11111222' 
WAVCIS,ioos:station:WAVCIS:CSI06:1,2019-10-03T04:00:00Z,28.8667,-90.4833,10.0,7.7,100.0,8.2,'11111222,11111222,11111222' 
WAVCIS,ioos:station:WAVCIS:CSI06:1,2019-10-03T05:00:00Z,28.8667,-90.4833,10.0,6.7,110.0,7.7,'11111222,11111222,11111222' 
WAVCIS,ioos:station:WAVCIS:CSI06:1,2019-10-03T06:00:00Z,28.8667,-90.4833,10.0,5.1,110.0,5.7,'11111222,11111222,11111222' 
WAVCIS,ioos:station:WAVCIS:CSI06:1,2019-10-03T07:00:00Z,28.8667,-90.4833,10.0,5.1,110.0,5.7,'11111222,11111222,11111222' 
WAVCIS,ioos:station:WAVCIS:CSI06:1,2019-10-03T08:00:00Z,28.8667,-90.4833,10.0,4.6,100.0,5.1,'11111222,11111222,11111222' 
WAVCIS,ioos:station:WAVCIS:CSI06:1,2019-10-03T09:00:00Z,28.8667,-90.4833,10.0,5.7,90.0,6.2,'11111222,11111222,11111222' 
WAVCIS,ioos:station:WAVCIS:CSI06:1,2019-10-03T10:00:00Z,28.8667,-90.4833,10.0,4.6,80.0,5.1,'11111222,11111222,11111222' 
WAVCIS,ioos:station:WAVCIS:CSI06:1,2019-10-03T11:00:00Z,28.8667,-90.4833,10.0,5.7,50.0,6.7,'11111222,11111222,11111222' 
WAVCIS,ioos:station:WAVCIS:CSI06:1,2019-10-03T12:00:00Z,28.8667,-90.4833,10.0,6.7,60.0,7.7,'11111222,11111222,11111222' 
WAVCIS,ioos:station:WAVCIS:CSI06:1,2019-10-03T13:00:00Z,28.8667,-90.4833,10.0,7.7,60.0,8.8,'11111222,11111222,11111222' 
WAVCIS,ioos:station:WAVCIS:CSI06:1,2019-10-03T14:00:00Z,28.8667,-90.4833,10.0,7.7,60.0,9.3,'11111222,11111222,11111222' 
WAVCIS,ioos:station:WAVCIS:CSI06:1,2019-10-03T15:00:00Z,28.8667,-90.4833,10.0,8.2,60.0,9.3,'11111222,11111222,11111222' 
WAVCIS,ioos:station:WAVCIS:CSI06:1,2019-10-03T16:00:00Z,28.8667,-90.4833,10.0,8.2,70.0,9.3,'11111222,11111222,11111222' 
WAVCIS,ioos:station:WAVCIS:CSI06:1,2019-10-03T17:00:00Z,28.8667,-90.4833,10.0,8.2,70.0,8.8,'11111222,11111222,11111222' 
WAVCIS,ioos:station:WAVCIS:CSI06:1,2019-10-03T18:00:00Z,28.8667,-90.4833,10.0,8.2,70.0,9.3,'11111222,11111222,11111222' 
WAVCIS,ioos:station:WAVCIS:CSI06:1,2019-10-03T19:00:00Z,28.8667,-90.4833,10.0,8.2,70.0,9.3,'11111222,11111222,11111222' 
WAVCIS,ioos:station:WAVCIS:CSI06:1,2019-10-03T20:00:00Z,28.8667,-90.4833,10.0,7.7,70.0,8.8,'11111222,11111222,11111222' 
WAVCIS,ioos:station:WAVCIS:CSI06:1,2019-10-03T21:00:00Z,28.8667,-90.4833,10.0,7.7,70.0,8.2,'11111222,11111222,11111222' 
WAVCIS,ioos:station:WAVCIS:CSI06:1,2019-10-03T22:00:00Z,28.8667,-90.4833,10.0,7.2,80.0,7.7,'11111222,11111222,11111222' 
WAVCIS,ioos:station:WAVCIS:CSI06:1,2019-10-03T23:00:00Z,28.8667,-90.4833,10.0,7.2,80.0,7.7,'11111222,11111222,11111222' 
WAVCIS,ioos:station:WAVCIS:CSI06:1,2019-10-04T00:00:00Z,28.8667,-90.4833,10.0,7.7,80.0,8.2,'11111222,11111222,11111222' 
WAVCIS,ioos:station:WAVCIS:CSI06:1,2019-10-04T01:00:00Z,28.8667,-90.4833,10.0,6.7,100.0,7.2,'11111222,11111222,11111222' 
WAVCIS,ioos:station:WAVCIS:CSI06:1,2019-10-04T02:00:00Z,28.8667,-90.4833,10.0,6.7,100.0,7.7,'11111222,11111222,11111222' 
WAVCIS,ioos:station:WAVCIS:CSI06:1,2019-10-04T03:00:00Z,28.8667,-90.4833,10.0,6.2,100.0,6.7,'11111222,11111222,11111222' 
WAVCIS,ioos:station:WAVCIS:CSI06:1,2019-10-04T04:00:00Z,28.8667,-90.4833,10.0,5.1,100.0,6.2,'11111222,11111222,11111222' 
WAVCIS,ioos:station:WAVCIS:CSI06:1,2019-10-04T05:00:00Z,28.8667,-90.4833,10.0,5.1,90.0,5.7,'11111222,11111222,11111222' 
WAVCIS,ioos:station:WAVCIS:CSI06:1,2019-10-04T06:00:00Z,28.8667,-90.4833,10.0,4.6,80.0,5.1,'11111222,11111222,11111222' 
WAVCIS,ioos:station:WAVCIS:CSI06:1,2019-10-04T07:00:00Z,28.8667,-90.4833,10.0,4.6,80.0,5.1,'11111222,11111222,11111222' 
WAVCIS,ioos:station:WAVCIS:CSI06:1,2019-10-04T08:00:00Z,28.8667,-90.4833,10.0,4.6,60.0,6.2,'11111222,11111222,11111222' 
WAVCIS,ioos:station:WAVCIS:CSI06:1,2019-10-04T09:00:00Z,28.8667,-90.4833,10.0,4.1,50.0,5.7,'11111222,11111222,11111222' 
WAVCIS,ioos:station:WAVCIS:CSI06:1,2019-10-04T10:00:00Z,28.8667,-90.4833,10.0,4.6,50.0,6.2,'11111222,11111222,11111222' 
WAVCIS,ioos:station:WAVCIS:CSI06:1,2019-10-04T11:00:00Z,28.8667,-90.4833,10.0,3.1,40.0,5.1,'11111222,11111222,11111222' 
WAVCIS,ioos:station:WAVCIS:CSI06:1,2019-10-04T12:00:00Z,28.8667,-90.4833,10.0,3.1,40.0,5.7,'11111222,11111222,11111222' 
WAVCIS,ioos:station:WAVCIS:CSI06:1,2019-10-04T13:00:00Z,28.8667,-90.4833,10.0,4.6,50.0,6.2,'11111222,11111222,11111222' 
WAVCIS,ioos:station:WAVCIS:CSI06:1,2019-10-04T14:00:00Z,28.8667,-90.4833,10.0,4.6,50.0,6.7,'11111222,11111222,11111222' 
WAVCIS,ioos:station:WAVCIS:CSI06:1,2019-10-04T15:00:00Z,28.8667,-90.4833,10.0,6.2,60.0,7.2,'11111222,11111222,11111222' 
WAVCIS,ioos:station:WAVCIS:CSI06:1,2019-10-04T16:00:00Z,28.8667,-90.4833,10.0,6.2,80.0,6.7,'11111222,11111222,11111222' 
WAVCIS,ioos:station:WAVCIS:CSI06:1,2019-10-04T17:00:00Z,28.8667,-90.4833,10.0,5.7,80.0,6.2,'11111222,11111222,11111222' 
WAVCIS,ioos:station:WAVCIS:CSI06:1,2019-10-04T18:00:00Z,28.8667,-90.4833,10.0,6.2,80.0,7.2,'11111222,11111222,11111222' 
WAVCIS,ioos:station:WAVCIS:CSI06:1,2019-10-04T19:00:00Z,28.8667,-90.4833,10.0,6.2,90.0,7.7,'11111222,11111222,11111222' 
WAVCIS,ioos:station:WAVCIS:CSI06:1,2019-10-04T20:00:00Z,28.8667,-90.4833,10.0,5.1,90.0,6.2,'11111222,11111222,11111222' 
WAVCIS,ioos:station:WAVCIS:CSI06:1,2019-10-04T21:00:00Z,28.8667,-90.4833,10.0,6.2,100.0,7.2,'11111222,11111222,11111222' 
WAVCIS,ioos:station:WAVCIS:CSI06:1,2019-10-04T22:00:00Z,28.8667,-90.4833,10.0,5.1,110.0,6.2,'11111222,11111222,11111222' 
WAVCIS,ioos:station:WAVCIS:CSI06:1,2019-10-04T23:00:00Z,28.8667,-90.4833,10.0,4.6,110.0,5.1,'11111222,11111222,11111222' 
WAVCIS,ioos:station:WAVCIS:CSI06:1,2019-10-05T00:00:00Z,28.8667,-90.4833,10.0,5.1,110.0,5.7,'11111222,11111222,11111222' 
WAVCIS,ioos:station:WAVCIS:CSI06:1,2019-10-05T01:00:00Z,28.8667,-90.4833,10.0,4.1,110.0,5.1,'11111222,11111222,11111222' 
WAVCIS,ioos:station:WAVCIS:CSI06:1,2019-10-05T02:00:00Z,28.8667,-90.4833,10.0,3.6,100.0,4.1,'11111222,11111222,11111222' 
WAVCIS,ioos:station:WAVCIS:CSI06:1,2019-10-05T03:00:00Z,28.8667,-90.4833,10.0,3.1,110.0,3.6,'11111222,11111222,11111222' 
WAVCIS,ioos:station:WAVCIS:CSI06:1,2019-10-05T04:00:00Z,28.8667,-90.4833,10.0,3.1,100.0,3.6,'11111222,11111222,11111222' 
WAVCIS,ioos:station:WAVCIS:CSI06:1,2019-10-05T05:00:00Z,28.8667,-90.4833,10.0,2.6,110.0,3.6,'11111222,11111222,11111222' 
WAVCIS,ioos:station:WAVCIS:CSI06:1,2019-10-05T06:00:00Z,28.8667,-90.4833,10.0,1.5,90.0,2.1,'11111222,11111222,11111222' 
WAVCIS,ioos:station:WAVCIS:CSI06:1,2019-10-05T07:00:00Z,28.8667,-90.4833,10.0,2.6,90.0,3.1,'11111222,11111222,11111222' 
WAVCIS,ioos:station:WAVCIS:CSI06:1,2019-10-05T08:00:00Z,28.8667,-90.4833,10.0,3.1,90.0,4.1,'11111222,11111222,11111222' 
WAVCIS,ioos:station:WAVCIS:CSI06:1,2019-10-05T09:00:00Z,28.8667,-90.4833,10.0,2.1,70.0,3.1,'11111222,11111222,11111222' 
WAVCIS,ioos:station:WAVCIS:CSI06:1,2019-10-05T10:00:00Z,28.8667,-90.4833,10.0,2.1,70.0,3.1,'11111222,11111222,11111222' 
WAVCIS,ioos:station:WAVCIS:CSI06:1,2019-10-05T11:00:00Z,28.8667,-90.4833,10.0,1.5,90.0,2.1,'11111222,11111222,11111222' 
WAVCIS,ioos:station:WAVCIS:CSI06:1,2019-10-05T12:00:00Z,28.8667,-90.4833,10.0,2.6,60.0,4.1,'11111222,11111222,11111222' 
WAVCIS,ioos:station:WAVCIS:CSI06:1,2019-10-05T13:00:00Z,28.8667,-90.4833,10.0,3.1,90.0,3.6,'11111222,11111222,11111222' 
WAVCIS,ioos:station:WAVCIS:CSI06:1,2019-10-05T14:00:00Z,28.8667,-90.4833,10.0,3.1,110.0,3.6,'11111222,11111222,11111222' 
WAVCIS,ioos:station:WAVCIS:CSI06:1,2019-10-05T15:00:00Z,28.8667,-90.4833,10.0,3.6,90.0,4.1,'11111222,11111222,11111222' 
WAVCIS,ioos:station:WAVCIS:CSI06:1,2019-10-05T16:00:00Z,28.8667,-90.4833,10.0,4.1,90.0,4.6,'11111222,11111222,11111222' 
WAVCIS,ioos:station:WAVCIS:CSI06:1,2019-10-05T17:00:00Z,28.8667,-90.4833,10.0,5.1,80.0,5.7,'11111222,11111222,11111222' 
WAVCIS,ioos:station:WAVCIS:CSI06:1,2019-10-05T18:00:00Z,28.8667,-90.4833,10.0,4.6,100.0,5.7,'11111222,11111222,11111222' 
WAVCIS,ioos:station:WAVCIS:CSI06:1,2019-10-05T19:00:00Z,28.8667,-90.4833,10.0,5.1,100.0,6.2,'11111222,11111222,11111222' 
WAVCIS,ioos:station:WAVCIS:CSI06:1,2019-10-05T20:00:00Z,28.8667,-90.4833,10.0,5.1,90.0,5.7,'11111222,11111222,11111222' 
WAVCIS,ioos:station:WAVCIS:CSI06:1,2019-10-05T21:00:00Z,28.8667,-90.4833,10.0,4.6,90.0,5.1,'11111222,11111222,11111222' 
WAVCIS,ioos:station:WAVCIS:CSI06:1,2019-10-05T22:00:00Z,28.8667,-90.4833,10.0,4.1,80.0,4.6,'11111222,11111222,11111222' 
WAVCIS,ioos:station:WAVCIS:CSI06:1,2019-10-05T23:00:00Z,28.8667,-90.4833,10.0,3.6,80.0,4.6,'11111222,11111222,11111222' 
WAVCIS,ioos:station:WAVCIS:CSI06:1,2019-10-06T00:00:00Z,28.8667,-90.4833,10.0,4.6,90.0,5.7,'11111222,11111222,11111222' 
WAVCIS,ioos:station:WAVCIS:CSI06:1,2019-10-06T01:00:00Z,28.8667,-90.4833,10.0,6.2,80.0,7.2,'11111222,11111222,11111222' 
WAVCIS,ioos:station:WAVCIS:CSI06:1,2019-10-06T02:00:00Z,28.8667,-90.4833,10.0,6.7,110.0,7.7,'11111222,11111222,11111222' 
WAVCIS,ioos:station:WAVCIS:CSI06:1,2019-10-06T03:00:00Z,28.8667,-90.4833,10.0,6.7,90.0,7.7,'11111222,11111222,11111222' 
WAVCIS,ioos:station:WAVCIS:CSI06:1,2019-10-06T04:00:00Z,28.8667,-90.4833,10.0,7.2,90.0,8.2,'11111222,11111222,11111222' 
WAVCIS,ioos:station:WAVCIS:CSI06:1,2019-10-06T05:00:00Z,28.8667,-90.4833,10.0,7.2,90.0,8.2,'11111222,11111222,11111222' 
WAVCIS,ioos:station:WAVCIS:CSI06:1,2019-10-06T06:00:00Z,28.8667,-90.4833,10.0,8.8,100.0,10.3,'11111222,11111222,11111222' 
WAVCIS,ioos:station:WAVCIS:CSI06:1,2019-10-06T07:00:00Z,28.8667,-90.4833,10.0,9.3,110.0,10.3,'11111222,11111222,11111222' 
WAVCIS,ioos:station:WAVCIS:CSI06:1,2019-10-09T19:00:00Z,28.8667,-90.4833,10.0,5.1,100.0,6.2,'11111222,11111222,11111222' 
WAVCIS,ioos:station:WAVCIS:CSI06:1,2019-10-11T15:00:00Z,28.8667,-90.4833,10.0,4.1,140.0,5.1,'11111222,11111222,11111222' 
WAVCIS,ioos:station:WAVCIS:CSI06:1,2019-10-11T16:00:00Z,28.8667,-90.4833,10.0,5.1,150.0,5.7,'11111222,11111222,11111222' 
WAVCIS,ioos:station:WAVCIS:CSI06:1,2019-10-11T17:00:00Z,28.8667,-90.4833,10.0,3.6,140.0,4.1,'11111222,11111222,11111222' 
WAVCIS,ioos:station:WAVCIS:CSI06:1,2019-10-11T18:00:00Z,28.8667,-90.4833,10.0,2.1,160.0,3.1,'11111222,11111222,11111222' 
WAVCIS,ioos:station:WAVCIS:CSI06:1,2019-10-11T19:00:00Z,28.8667,-90.4833,10.0,2.6,250.0,3.6,'11111222,11111222,11111222' 
WAVCIS,ioos:station:WAVCIS:CSI06:1,2019-10-11T20:00:00Z,28.8667,-90.4833,10.0,1.5,250.0,2.6,'11111222,11111222,11111222' 
WAVCIS,ioos:station:WAVCIS:CSI06:1,2019-10-11T21:00:00Z,28.8667,-90.4833,10.0,1.0,280.0,1.5,'11111222,11111222,11111222' 
WAVCIS,ioos:station:WAVCIS:CSI06:1,2019-10-11T22:00:00Z,28.8667,-90.4833,10.0,4.1,100.0,5.1,'11111222,11111222,11111222' 
WAVCIS,ioos:station:WAVCIS:CSI06:1,2019-10-11T23:00:00Z,28.8667,-90.4833,10.0,2.6,120.0,3.1,'11111222,11111222,11111222' 
WAVCIS,ioos:station:WAVCIS:CSI06:1,2019-10-12T00:00:00Z,28.8667,-90.4833,10.0,2.6,110.0,3.1,'11111222,11111222,11111222' 
WAVCIS,ioos:station:WAVCIS:CSI06:1,2019-10-12T01:00:00Z,28.8667,-90.4833,10.0,3.1,90.0,4.1,'11111222,11111222,11111222' 
WAVCIS,ioos:station:WAVCIS:CSI06:1,2019-10-12T02:00:00Z,28.8667,-90.4833,10.0,2.6,110.0,3.6,'11111222,11111222,11111222' 
WAVCIS,ioos:station:WAVCIS:CSI06:1,2019-10-12T03:00:00Z,28.8667,-90.4833,10.0,2.1,100.0,2.6,'11111222,11111222,11111222' 
WAVCIS,ioos:station:WAVCIS:CSI06:1,2019-10-12T04:00:00Z,28.8667,-90.4833,10.0,1.5,90.0,1.5,'11111222,11111222,11111222' 
WAVCIS,ioos:station:WAVCIS:CSI06:1,2019-10-12T05:00:00Z,28.8667,-90.4833,10.0,7.7,10.0,9.8,'11111222,11111222,11111222' 
WAVCIS,ioos:station:WAVCIS:CSI06:1,2019-10-12T06:00:00Z,28.8667,-90.4833,10.0,7.7,20.0,9.3,'11111222,11111222,11111222' 
WAVCIS,ioos:station:WAVCIS:CSI06:1,2019-10-12T07:00:00Z,28.8667,-90.4833,10.0,8.2,20.0,10.3,'11111222,11111222,11111222' 
WAVCIS,ioos:station:WAVCIS:CSI06:1,2019-10-12T08:00:00Z,28.8667,-90.4833,10.0,6.7,20.0,8.2,'11111222,11111222,11111222' 
WAVCIS,ioos:station:WAVCIS:CSI06:1,2019-10-12T09:00:00Z,28.8667,-90.4833,10.0,6.7,10.0,9.8,'11111222,11111222,11111222' 
WAVCIS,ioos:station:WAVCIS:CSI06:1,2019-10-12T10:00:00Z,28.8667,-90.4833,10.0,9.3,10.0,10.8,'11111222,11111222,11111222' 
WAVCIS,ioos:station:WAVCIS:CSI06:1,2019-10-12T11:00:00Z,28.8667,-90.4833,10.0,9.3,10.0,11.8,'11111222,11111222,11111222' 
WAVCIS,ioos:station:WAVCIS:CSI06:1,2019-10-12T12:00:00Z,28.8667,-90.4833,10.0,9.8,10.0,12.4,'11111222,11111222,11111222' 
WAVCIS,ioos:station:WAVCIS:CSI06:1,2019-10-12T13:00:00Z,28.8667,-90.4833,10.0,9.3,20.0,11.8,'11111222,11111222,11111222' 
WAVCIS,ioos:station:WAVCIS:CSI06:1,2019-10-12T14:00:00Z,28.8667,-90.4833,10.0,8.2,10.0,11.3,'11111222,11111222,11111222' 
WAVCIS,ioos:station:WAVCIS:CSI06:1,2019-10-12T15:00:00Z,28.8667,-90.4833,10.0,8.2,10.0,10.3,'11111222,11111222,11111222' 
WAVCIS,ioos:station:WAVCIS:CSI06:1,2019-10-12T16:00:00Z,28.8667,-90.4833,10.0,8.2,20.0,10.3,'11111222,11111222,11111222' 
WAVCIS,ioos:station:WAVCIS:CSI06:1,2019-10-12T17:00:00Z,28.8667,-90.4833,10.0,8.2,30.0,10.3,'11111222,11111222,11111222' 
WAVCIS,ioos:station:WAVCIS:CSI06:1,2019-10-12T18:00:00Z,28.8667,-90.4833,10.0,7.7,30.0,10.3,'11111222,11111222,11111222' 
WAVCIS,ioos:station:WAVCIS:CSI06:1,2019-10-12T19:00:00Z,28.8667,-90.4833,10.0,6.2,30.0,8.8,'11111222,11111222,11111222' 
WAVCIS,ioos:station:WAVCIS:CSI06:1,2019-10-12T20:00:00Z,28.8667,-90.4833,10.0,6.2,30.0,7.7,'11111222,11111222,11111222' 
WAVCIS,ioos:station:WAVCIS:CSI06:1,2019-10-12T21:00:00Z,28.8667,-90.4833,10.0,5.7,30.0,7.2,'11111222,11111222,11111222' 
WAVCIS,ioos:station:WAVCIS:CSI06:1,2019-10-12T22:00:00Z,28.8667,-90.4833,10.0,3.1,50.0,6.7,'11111222,11111222,11111222' 
WAVCIS,ioos:station:WAVCIS:CSI06:1,2019-10-12T23:00:00Z,28.8667,-90.4833,10.0,3.6,40.0,5.7,'11111222,11111222,11111222' 
WAVCIS,ioos:station:WAVCIS:CSI06:1,2019-10-13T00:00:00Z,28.8667,-90.4833,10.0,5.7,30.0,7.7,'11111222,11111222,11111222' 
WAVCIS,ioos:station:WAVCIS:CSI06:1,2019-10-13T01:00:00Z,28.8667,-90.4833,10.0,5.7,30.0,8.2,'11111222,11111222,11111222' 
WAVCIS,ioos:station:WAVCIS:CSI06:1,2019-10-13T02:00:00Z,28.8667,-90.4833,10.0,5.7,40.0,8.8,'11111222,11111222,11111222' 
WAVCIS,ioos:station:WAVCIS:CSI06:1,2019-10-13T03:00:00Z,28.8667,-90.4833,10.0,5.7,50.0,8.8,'11111222,11111222,11111222' 
WAVCIS,ioos:station:WAVCIS:CSI06:1,2019-10-13T04:00:00Z,28.8667,-90.4833,10.0,4.1,50.0,7.2,'11111222,11111222,11111222' 
WAVCIS,ioos:station:WAVCIS:CSI06:1,2019-10-13T05:00:00Z,28.8667,-90.4833,10.0,6.2,80.0,7.7,'11111222,11111222,11111222' 
WAVCIS,ioos:station:WAVCIS:CSI06:1,2019-10-13T06:00:00Z,28.8667,-90.4833,10.0,2.6,110.0,4.1,'11111222,11111222,11111222' 
WAVCIS,ioos:station:WAVCIS:CSI06:1,2019-10-13T07:00:00Z,28.8667,-90.4833,10.0,4.6,110.0,5.1,'11111222,11111222,11111222' 
WAVCIS,ioos:station:WAVCIS:CSI06:1,2019-10-13T08:00:00Z,28.8667,-90.4833,10.0,3.6,120.0,5.7,'11111222,11111222,11111222' 
WAVCIS,ioos:station:WAVCIS:CSI06:1,2019-10-13T09:00:00Z,28.8667,-90.4833,10.0,1.5,150.0,3.1,'11111222,11111222,11111222' 
WAVCIS,ioos:station:WAVCIS:CSI06:1,2019-10-13T10:00:00Z,28.8667,-90.4833,10.0,0.5,250.0,1.5,'11111222,11111222,11111222' 
WAVCIS,ioos:station:WAVCIS:CSI06:1,2019-10-13T11:00:00Z,28.8667,-90.4833,10.0,2.1,310.0,2.6,'11111222,11111222,11111222' 
WAVCIS,ioos:station:WAVCIS:CSI06:1,2019-10-13T12:00:00Z,28.8667,-90.4833,10.0,6.2,30.0,7.7,'11111222,11111222,11111222' 
WAVCIS,ioos:station:WAVCIS:CSI06:1,2019-10-13T13:00:00Z,28.8667,-90.4833,10.0,5.1,40.0,7.2,'11111222,11111222,11111222' 
WAVCIS,ioos:station:WAVCIS:CSI06:1,2019-10-13T14:00:00Z,28.8667,-90.4833,10.0,4.6,50.0,7.7,'11111222,11111222,11111222' 
WAVCIS,ioos:station:WAVCIS:CSI06:1,2019-10-13T15:00:00Z,28.8667,-90.4833,10.0,6.7,50.0,7.7,'11111222,11111222,11111222' 
WAVCIS,ioos:station:WAVCIS:CSI06:1,2019-10-13T16:00:00Z,28.8667,-90.4833,10.0,6.2,50.0,7.2,'11111222,11111222,11111222' 
WAVCIS,ioos:station:WAVCIS:CSI06:1,2019-10-13T17:00:00Z,28.8667,-90.4833,10.0,3.1,50.0,5.7,'11111222,11111222,11111222' 
WAVCIS,ioos:station:WAVCIS:CSI06:1,2019-10-13T18:00:00Z,28.8667,-90.4833,10.0,2.6,50.0,4.1,'11111222,11111222,11111222' 
WAVCIS,ioos:station:WAVCIS:CSI06:1,2019-10-13T19:00:00Z,28.8667,-90.4833,10.0,3.6,70.0,4.6,'11111222,11111222,11111222' 
WAVCIS,ioos:station:WAVCIS:CSI06:1,2019-10-13T21:00:00Z,28.8667,-90.4833,10.0,2.1,80.0,2.6,'11111222,11111222,11111222' 
WAVCIS,ioos:station:WAVCIS:CSI06:1,2019-10-13T22:00:00Z,28.8667,-90.4833,10.0,2.6,80.0,3.6,'11111222,11111222,11111222' 
WAVCIS,ioos:station:WAVCIS:CSI06:1,2019-10-13T23:00:00Z,28.8667,-90.4833,10.0,2.6,90.0,4.1,'11111222,11111222,11111222' 
WAVCIS,ioos:station:WAVCIS:CSI06:1,2019-10-14T00:00:00Z,28.8667,-90.4833,10.0,3.1,100.0,4.1,'11111222,11111222,11111222' 
WAVCIS,ioos:station:WAVCIS:CSI06:1,2019-10-14T01:00:00Z,28.8667,-90.4833,10.0,3.6,90.0,4.6,'11111222,11111222,11111222' 
WAVCIS,ioos:station:WAVCIS:CSI06:1,2019-10-14T02:00:00Z,28.8667,-90.4833,10.0,4.1,100.0,5.7,'11111222,11111222,11111222' 
WAVCIS,ioos:station:WAVCIS:CSI06:1,2019-10-14T03:00:00Z,28.8667,-90.4833,10.0,4.1,100.0,5.1,'11111222,11111222,11111222' 
WAVCIS,ioos:station:WAVCIS:CSI06:1,2019-10-14T04:00:00Z,28.8667,-90.4833,10.0,6.2,90.0,7.2,'11111222,11111222,11111222' 
WAVCIS,ioos:station:WAVCIS:CSI06:1,2019-10-14T05:00:00Z,28.8667,-90.4833,10.0,6.2,100.0,7.2,'11111222,11111222,11111222' 
WAVCIS,ioos:station:WAVCIS:CSI06:1,2019-10-14T06:00:00Z,28.8667,-90.4833,10.0,5.1,80.0,5.7,'11111222,11111222,11111222' 
WAVCIS,ioos:station:WAVCIS:CSI06:1,2019-10-14T07:00:00Z,28.8667,-90.4833,10.0,5.1,100.0,6.2,'11111222,11111222,11111222' 
WAVCIS,ioos:station:WAVCIS:CSI06:1,2019-10-14T08:00:00Z,28.8667,-90.4833,10.0,6.2,120.0,6.7,'11111222,11111222,11111222' 
WAVCIS,ioos:station:WAVCIS:CSI06:1,2019-10-14T09:00:00Z,28.8667,-90.4833,10.0,5.1,110.0,6.2,'11111222,11111222,11111222' 
WAVCIS,ioos:station:WAVCIS:CSI06:1,2019-10-14T10:00:00Z,28.8667,-90.4833,10.0,3.6,100.0,4.6,'11111222,11111222,11111222' 
WAVCIS,ioos:station:WAVCIS:CSI06:1,2019-10-14T11:00:00Z,28.8667,-90.4833,10.0,3.6,120.0,4.6,'11111222,11111222,11111222' 